Weather History for Tillamook, OR

Change the Weather History Date:

Tuesday, January 29, 2013

  Actual Average (KMMV) Record (KMMV)
Temperature  
Mean Temperature 47 °F 42 °F  
Max Temperature 48 °F 49 °F 64 °F (1958)
Min Temperature 46 °F 35 °F 7 °F (1969)
Degree Days  
Heating Degree Days 18 23  
Month to date heating degree days 702  
Since 1 July heating degree days 2707  
Cooling Degree Days 0 0  
Month to date cooling degree days 0  
Year to date cooling degree days 0  
Moisture  
Dew Point 46 °F    
Average Humidity 97    
Maximum Humidity 100    
Minimum Humidity 93    
Precipitation  
Precipitation 2.79 in 0.16 in 1.97 in (2004)
Month to date precipitation 5.77  
Year to date precipitation 5.77  
Sea Level Pressure  
Sea Level Pressure 30.40 in    
Wind  
Wind Speed 6 mph (WSW)    
Max Wind Speed 14 mph    
Max Gust Speed 17 mph    
Visibility 4 miles    
Events Rain    
T = Trace of Precipitation, MM = Missing Value Source: NWS Daily Summary

Daily Weather History Graph

Daily Weather History Graph

Search for Another Location

Airport:

Trip Planner

Search our weather history database for the weather conditions in past years. The results will help you decide how hot, cold, wet, or windy it might be!

Date:

Astronomy

Jan. 29, 2013 Rise Set
Actual Time 8:39 AM MST 6:18 PM MST
Civil Twilight 8:07 AM MST 6:50 PM MST
Nautical Twilight 7:31 AM MST 7:25 PM MST
Astronomical Twilight 6:56 AM MST 8:00 PM MST
Moon 9:32 PM MST (1/29) 9:28 AM MST (1/29)
Length of Visible Light 10h 42m
Length of Day
9h 39m
Waning Gibbous, 93% of the Moon is Illuminated
Jan 29
Waning Gibbous
Feb 3
Last Quarter
Feb 10
New
Feb 17
First Quarter
Feb 25
Full

Hourly Weather History & Observations

Time (MST) Temp. Windchill Dew Point Humidity Pressure Visibility Wind Dir Wind Speed Gust Speed Precip Events Conditions
12:15 AM 46.4 °F 43.5 °F 44.6 °F 93% 30.26 in 3.0 mi WNW 5.8 mph - N/A Rain Rain
12:35 AM 46.4 °F 43.5 °F 44.6 °F 93% 30.27 in 4.0 mi West 5.8 mph - N/A Rain Light Rain
12:55 AM 46.4 °F 43.5 °F 44.6 °F 93% 30.27 in 3.0 mi WNW 5.8 mph - N/A   Heavy Drizzle
1:15 AM 46.4 °F 44.3 °F 44.6 °F 93% 30.27 in 4.0 mi West 4.6 mph - N/A Rain Light Rain
1:35 AM 46.4 °F 44.3 °F 44.6 °F 93% 30.28 in 3.0 mi West 4.6 mph - N/A   Drizzle
1:55 AM 46.4 °F 44.3 °F 44.6 °F 93% 30.28 in 3.0 mi West 4.6 mph - N/A Rain Rain
2:15 AM 46.4 °F 42.9 °F 44.6 °F 93% 30.28 in 3.0 mi WSW 6.9 mph - N/A   Light Drizzle
2:35 AM 46.4 °F 42.9 °F 44.6 °F 93% 30.29 in 2.5 mi West 6.9 mph - N/A   Drizzle
2:55 AM 46.4 °F 42.9 °F 44.6 °F 93% 30.29 in 3.0 mi West 6.9 mph - N/A   Drizzle
3:15 AM 46.4 °F 42.4 °F 44.6 °F 93% 30.28 in 3.0 mi West 8.1 mph - N/A   Overcast
3:35 AM 46.4 °F 42.4 °F 44.6 °F 93% 30.29 in 4.0 mi West 8.1 mph - N/A Rain Light Rain
3:55 AM 46.4 °F 42.4 °F 44.6 °F 93% 30.30 in 2.5 mi West 8.1 mph - N/A   Drizzle
4:15 AM 46.4 °F 43.5 °F 44.6 °F 93% 30.30 in 2.5 mi West 5.8 mph - N/A   Drizzle
4:35 AM 46.4 °F 42.4 °F 44.6 °F 93% 30.30 in 3.0 mi West 8.1 mph - N/A   Light Drizzle
4:55 AM 46.4 °F 42.4 °F 44.6 °F 93% 30.31 in 2.5 mi West 8.1 mph - N/A Rain Rain
5:15 AM 46.4 °F 42.4 °F 44.6 °F 93% 30.31 in 2.5 mi West 8.1 mph - 0.01 in Rain Rain
5:35 AM 46.4 °F 41.9 °F 46.4 °F 100% 30.31 in 2.5 mi West 9.2 mph - 0.01 in   Drizzle
5:55 AM 46.4 °F 42.4 °F 46.4 °F 100% 30.32 in 2.5 mi West 8.1 mph - 0.01 in   Drizzle
6:15 AM 46.4 °F 42.9 °F 46.4 °F 100% 30.32 in 2.5 mi West 6.9 mph - N/A Rain Light Rain
6:35 AM 46.4 °F 42.9 °F 46.4 °F 100% 30.33 in 3.0 mi West 6.9 mph - N/A Rain Rain
6:55 AM 46.4 °F 40.7 °F 46.4 °F 100% 30.33 in 2.0 mi WNW 12.7 mph - N/A Rain Light Rain
7:15 AM 46.4 °F 41.9 °F 46.4 °F 100% 30.34 in 3.0 mi WNW 9.2 mph - N/A Rain Light Rain
7:35 AM 46.4 °F 41.1 °F 46.4 °F 100% 30.34 in 2.5 mi West 11.5 mph - N/A   Drizzle
7:55 AM 46.4 °F 40.4 °F 46.4 °F 100% 30.35 in 2.5 mi WNW 13.8 mph 17.3 mph N/A Rain Rain
8:15 AM 46.4 °F 42.9 °F 46.4 °F 100% 30.35 in 4.0 mi WNW 6.9 mph - N/A Rain Light Rain
8:35 AM 46.4 °F 42.9 °F 46.4 °F 100% 30.36 in 3.0 mi West 6.9 mph - N/A   Light Drizzle
8:55 AM 46.4 °F 44.3 °F 46.4 °F 100% 30.37 in 1.8 mi West 4.6 mph - N/A   Light Drizzle
9:15 AM 46.4 °F - 46.4 °F 100% 30.37 in 1.5 mi Calm Calm - N/A Rain Heavy Rain
9:35 AM 46.4 °F 45.2 °F 46.4 °F 100% 30.38 in 3.0 mi West 3.5 mph - N/A   Light Drizzle
9:55 AM 46.4 °F - 46.4 °F 100% 30.39 in 1.8 mi Calm Calm - N/A   Heavy Drizzle
10:15 AM 46.4 °F 44.3 °F 46.4 °F 100% 30.39 in 2.0 mi West 4.6 mph - N/A   Drizzle
10:35 AM 46.4 °F 43.5 °F 46.4 °F 100% 30.41 in 2.5 mi West 5.8 mph - N/A   Overcast
10:55 AM 46.4 °F 42.4 °F 46.4 °F 100% 30.41 in 4.0 mi West 8.1 mph - 0.01 in Rain Light Rain
11:15 AM 48.2 °F - 48.2 °F 100% 30.42 in 3.0 mi WSW 4.6 mph - N/A   Overcast
11:35 AM 48.2 °F - 46.4 °F 93% 30.42 in 5.0 mi West 5.8 mph - N/A   Overcast
11:55 AM 48.2 °F - 46.4 °F 93% 30.43 in 3.0 mi WSW 6.9 mph - N/A   Overcast
12:15 PM 48.2 °F - 46.4 °F 93% 30.44 in 2.5 mi West 5.8 mph - 0.01 in   Overcast
12:35 PM 48.2 °F - 46.4 °F 93% 30.44 in 3.0 mi WSW 8.1 mph - 0.02 in   Overcast
12:55 PM 48.2 °F - 48.2 °F 100% 30.45 in 2.5 mi West 8.1 mph - 0.03 in   Overcast
1:15 PM 48.2 °F - 48.2 °F 100% 30.45 in 3.0 mi West 4.6 mph - 0.03 in   Overcast
1:35 PM 48.2 °F - 46.4 °F 93% 30.45 in 5.0 mi WSW 6.9 mph - 0.08 in   Overcast
1:55 PM 48.2 °F - 46.4 °F 93% 30.45 in 4.0 mi WSW 8.1 mph - 0.15 in   Overcast
2:15 PM 48.2 °F - 46.4 °F 93% 30.45 in 4.0 mi SW 8.1 mph - 0.15 in   Overcast
2:35 PM 48.2 °F - 46.4 °F 93% 30.45 in 4.0 mi WSW 6.9 mph - 0.94 in   Overcast
2:55 PM 48.2 °F - 46.4 °F 93% 30.45 in 7.0 mi WSW 6.9 mph - 2.07 in   Overcast
3:15 PM 48.2 °F - 46.4 °F 93% 30.45 in 2.5 mi SW 6.9 mph - 0.44 in   Light Drizzle
3:35 PM 48.2 °F - 46.4 °F 93% 30.46 in 5.0 mi SW 8.1 mph - 0.44 in   Overcast
3:55 PM 48.2 °F - 46.4 °F 93% 30.46 in 2.5 mi SW 8.1 mph - 0.44 in   Overcast
4:15 PM 48.2 °F - 46.4 °F 93% 30.47 in 3.0 mi SW 6.9 mph - N/A   Overcast
4:35 PM 48.2 °F - 48.2 °F 100% 30.47 in 2.0 mi WSW 5.8 mph - 0.01 in   Drizzle
4:55 PM 48.2 °F - 46.4 °F 93% 30.48 in 1.8 mi WSW 5.8 mph - 0.01 in Rain Light Rain
5:15 PM 48.2 °F - 46.4 °F 93% 30.47 in 2.5 mi SW 5.8 mph - N/A   Light Drizzle
5:35 PM 48.2 °F - 46.4 °F 93% 30.48 in 2.0 mi WSW 6.9 mph - N/A   Overcast
5:55 PM 48.2 °F - 46.4 °F 93% 30.49 in 1.8 mi WSW 4.6 mph - 0.01 in   Drizzle
6:15 PM 48.2 °F - 46.4 °F 93% 30.49 in 1.5 mi WSW 9.2 mph - 0.01 in   Drizzle
6:35 PM 46.4 °F 44.3 °F 46.4 °F 100% 30.50 in 1.8 mi WSW 4.6 mph - 0.01 in   Drizzle
6:55 PM 46.4 °F 44.3 °F 46.4 °F 100% 30.50 in 2.5 mi West 4.6 mph - 0.01 in   Drizzle
7:15 PM 46.4 °F 43.5 °F 46.4 °F 100% 30.50 in 3.0 mi WSW 5.8 mph - 0.01 in Rain Light Rain
7:35 PM 46.4 °F 45.2 °F 46.4 °F 100% 30.49 in 5.0 mi SW 3.5 mph - 0.02 in Rain Light Rain
7:55 PM 46.4 °F 43.5 °F 46.4 °F 100% 30.50 in 5.0 mi WSW 5.8 mph - 0.02 in   Overcast
8:15 PM 46.4 °F 45.2 °F 46.4 °F 100% 30.50 in 4.0 mi WSW 3.5 mph - 0.01 in Rain Light Rain
8:35 PM 46.4 °F 45.2 °F 46.4 °F 100% 30.50 in 7.0 mi WSW 3.5 mph - 0.01 in   Light Drizzle
8:55 PM 46.4 °F 45.2 °F 46.4 °F 100% 30.51 in 10.0 mi SW 3.5 mph - 0.02 in   Overcast
9:15 PM 46.4 °F 43.5 °F 46.4 °F 100% 30.50 in 10.0 mi South 5.8 mph - N/A   Overcast
9:35 PM 46.4 °F 45.2 °F 46.4 °F 100% 30.50 in 10.0 mi SSW 3.5 mph - N/A   Overcast
9:55 PM 46.4 °F 44.3 °F 46.4 °F 100% 30.50 in 10.0 mi South 4.6 mph - N/A   Overcast
10:15 PM 46.4 °F 45.2 °F 46.4 °F 100% 30.49 in 7.0 mi SE 3.5 mph - N/A   Overcast
10:35 PM 46.4 °F 45.2 °F 46.4 °F 100% 30.49 in 5.0 mi SE 3.5 mph - N/A   Overcast
10:55 PM 46.4 °F 45.2 °F 46.4 °F 100% 30.49 in 3.0 mi SE 3.5 mph - N/A   Light Drizzle
11:15 PM 46.4 °F 44.3 °F 46.4 °F 100% 30.48 in 2.5 mi SSE 4.6 mph - N/A   Overcast
11:35 PM 46.4 °F 45.2 °F 46.4 °F 100% 30.48 in 3.0 mi SSE 3.5 mph - N/A   Drizzle
11:55 PM 46.4 °F - 46.4 °F 100% 30.48 in 2.5 mi Calm Calm - 0.01 in   Drizzle